Time,TemperatureF,DewpointF,PressureIn,WindDirection,WindDirectionDegrees,WindSpeedMPH,WindSpeedGustMPH,Humidity,HourlyPrecipIn,Conditions,Clouds,dailyrainin,SoftwareType,DateUTC
2013-02-11 00:00:00,27.1,23.5,29.46,North,355,0.0,11.0,86,0.00,,---,0.00,VWS V14.01,2013-02-11 06:00:00,
2013-02-11 00:05:00,27.0,23.4,29.47,NNE,13,0.0,7.0,86,0.00,,---,0.00,VWS V14.01,2013-02-11 06:05:00,
2013-02-11 00:10:00,27.0,23.4,29.47,North,360,4.0,7.0,86,0.00,,---,0.00,VWS V14.01,2013-02-11 06:10:00,
2013-02-11 00:15:00,27.0,23.4,29.47,North,355,5.0,7.0,86,0.00,,---,0.00,VWS V14.01,2013-02-11 06:15:00,
2013-02-11 00:20:00,27.0,23.4,29.47,North,11,3.0,7.0,86,0.00,,---,0.00,VWS V14.01,2013-02-11 06:20:00,
2013-02-11 00:25:00,27.0,23.4,29.48,North,10,7.0,7.0,86,0.00,,---,0.00,VWS V14.01,2013-02-11 06:25:00,
2013-02-11 00:30:00,27.0,23.4,29.48,North,360,2.0,7.0,86,0.00,,---,0.00,VWS V14.01,2013-02-11 06:30:00,
2013-02-11 00:35:00,26.9,23.3,29.48,NNE,23,3.0,6.0,86,0.00,,---,0.00,VWS V14.01,2013-02-11 06:35:00,
2013-02-11 00:40:00,26.9,23.3,29.49,NNW,330,0.0,7.0,86,0.00,,---,0.00,VWS V14.01,2013-02-11 06:40:00,
2013-02-11 00:45:00,26.9,23.3,29.49,NNE,20,3.0,7.0,86,0.00,,---,0.00,VWS V14.01,2013-02-11 06:45:00,
2013-02-11 00:50:00,26.9,23.3,29.49,NNE,13,0.0,7.0,86,0.00,,---,0.00,VWS V14.01,2013-02-11 06:50:00,
2013-02-11 00:55:00,26.9,23.3,29.49,North,11,1.0,7.0,86,0.00,,---,0.00,VWS V14.01,2013-02-11 06:55:00,
2013-02-11 01:00:00,26.9,23.3,29.49,NNW,331,0.0,7.0,86,0.00,,---,0.00,VWS V14.01,2013-02-11 07:00:00,
2013-02-11 01:05:00,26.9,23.0,29.50,North,351,3.0,4.0,85,0.00,,---,0.00,VWS V14.01,2013-02-11 07:05:00,
2013-02-11 01:10:00,26.8,22.9,29.50,NNW,341,1.0,4.0,85,0.00,,---,0.00,VWS V14.01,2013-02-11 07:10:00,
2013-02-11 01:15:00,26.8,22.9,29.50,North,350,0.0,4.0,85,0.00,,---,0.00,VWS V14.01,2013-02-11 07:15:00,
2013-02-11 01:20:00,26.7,22.8,29.50,NNW,346,0.0,4.0,85,0.00,,---,0.00,VWS V14.01,2013-02-11 07:20:00,
2013-02-11 01:25:00,26.7,22.8,29.50,North,5,3.0,4.0,85,0.00,,---,0.00,VWS V14.01,2013-02-11 07:25:00,
2013-02-11 01:30:00,26.6,22.7,29.51,North,355,0.0,6.0,85,0.00,,---,0.00,VWS V14.01,2013-02-11 07:30:00,
2013-02-11 01:35:00,26.6,22.7,29.51,North,355,1.0,4.0,85,0.00,,---,0.00,VWS V14.01,2013-02-11 07:35:00,
2013-02-11 01:40:00,26.6,22.7,29.51,NNW,340,3.0,4.0,85,0.00,,---,0.00,VWS V14.01,2013-02-11 07:40:00,
2013-02-11 01:45:00,26.5,22.6,29.52,NNW,337,1.0,6.0,85,0.00,,---,0.00,VWS V14.01,2013-02-11 07:45:00,
2013-02-11 01:50:00,26.5,22.6,29.52,NNW,348,0.0,6.0,85,0.00,,---,0.00,VWS V14.01,2013-02-11 07:50:00,
2013-02-11 01:55:00,26.4,22.5,29.52,NNW,340,4.0,6.0,85,0.00,,---,0.00,VWS V14.01,2013-02-11 07:55:00,
2013-02-11 02:00:00,26.3,22.4,29.52,North,351,3.0,6.0,85,0.00,,---,0.00,VWS V14.01,2013-02-11 08:00:00,
2013-02-11 02:05:00,26.2,22.3,29.53,NNW,338,1.0,3.0,85,0.00,,---,0.00,VWS V14.01,2013-02-11 08:05:00,
2013-02-11 02:10:00,26.2,22.3,29.53,NNW,346,1.0,3.0,85,0.00,,---,0.00,VWS V14.01,2013-02-11 08:10:00,
2013-02-11 02:15:00,26.1,22.2,29.53,NNW,347,0.0,4.0,85,0.00,,---,0.00,VWS V14.01,2013-02-11 08:15:00,
2013-02-11 02:20:00,26.0,21.8,29.54,North,350,3.0,5.0,84,0.00,,---,0.00,VWS V14.01,2013-02-11 08:20:00,
2013-02-11 02:25:00,25.9,21.7,29.54,NNE,18,1.0,7.0,84,0.00,,---,0.00,VWS V14.01,2013-02-11 08:25:00,
2013-02-11 02:30:00,25.8,21.6,29.54,NNW,343,1.0,7.0,84,0.00,,---,0.00,VWS V14.01,2013-02-11 08:30:00,
2013-02-11 02:35:00,25.8,21.6,29.54,NNW,331,2.0,4.0,84,0.00,,---,0.00,VWS V14.01,2013-02-11 08:35:00,
2013-02-11 02:40:00,25.7,21.5,29.55,NNE,17,5.0,5.0,84,0.00,,---,0.00,VWS V14.01,2013-02-11 08:40:00,
2013-02-11 02:45:00,25.6,21.5,29.55,North,360,3.0,5.0,84,0.00,,---,0.00,VWS V14.01,2013-02-11 08:45:00,
2013-02-11 02:50:00,25.6,21.5,29.56,North,355,1.0,5.0,84,0.00,,---,0.00,VWS V14.01,2013-02-11 08:50:00,
2013-02-11 02:55:00,25.5,21.4,29.56,NNW,346,0.0,5.0,84,0.00,,---,0.00,VWS V14.01,2013-02-11 08:55:00,
2013-02-11 03:00:00,25.4,21.2,29.57,North,360,0.0,5.0,84,0.00,,---,0.00,VWS V14.01,2013-02-11 09:00:00,
2013-02-11 03:05:00,25.3,21.1,29.57,North,350,0.0,5.0,84,0.00,,---,0.00,VWS V14.01,2013-02-11 09:05:00,
2013-02-11 03:10:00,25.2,21.0,29.57,NE,49,3.0,5.0,84,0.00,,---,0.00,VWS V14.01,2013-02-11 09:10:00,
2013-02-11 03:15:00,25.1,21.0,29.57,NW,315,1.0,5.0,84,0.00,,---,0.00,VWS V14.01,2013-02-11 09:15:00,
2013-02-11 03:20:00,24.9,20.8,29.57,NNW,345,0.0,9.0,84,0.00,,---,0.00,VWS V14.01,2013-02-11 09:20:00,
2013-02-11 03:25:00,24.8,20.9,29.57,North,360,1.0,9.0,85,0.00,,---,0.00,VWS V14.01,2013-02-11 09:25:00,
2013-02-11 03:30:00,24.7,20.6,29.58,NW,320,0.0,9.0,84,0.00,,---,0.00,VWS V14.01,2013-02-11 09:30:00,
2013-02-11 03:35:00,24.5,20.4,29.58,WNW,302,0.0,5.0,84,0.00,,---,0.00,VWS V14.01,2013-02-11 09:35:00,
2013-02-11 03:40:00,24.4,20.3,29.58,NNW,346,0.0,5.0,84,0.00,,---,0.00,VWS V14.01,2013-02-11 09:40:00,
2013-02-11 03:45:00,24.2,20.1,29.58,NNW,328,0.0,5.0,84,0.00,,---,0.00,VWS V14.01,2013-02-11 09:45:00,
2013-02-11 03:50:00,24.1,20.0,29.58,North,349,1.0,6.0,84,0.00,,---,0.00,VWS V14.01,2013-02-11 09:50:00,
2013-02-11 03:55:00,24.0,19.9,29.59,NW,325,1.0,9.0,84,0.00,,---,0.00,VWS V14.01,2013-02-11 09:55:00,
2013-02-11 04:00:00,23.9,19.8,29.59,NNW,348,3.0,9.0,84,0.00,,---,0.00,VWS V14.01,2013-02-11 10:00:00,
2013-02-11 04:05:00,23.9,19.8,29.59,NNW,342,3.0,5.0,84,0.00,,---,0.00,VWS V14.01,2013-02-11 10:05:00,
2013-02-11 04:10:00,23.8,20.0,29.59,North,360,0.0,5.0,85,0.00,,---,0.00,VWS V14.01,2013-02-11 10:10:00,
2013-02-11 04:15:00,23.7,21.7,29.60,NNW,336,0.0,5.0,92,0.00,,---,0.00,VWS V14.01,2013-02-11 10:15:00,
2013-02-11 04:20:00,23.6,19.8,29.60,North,351,1.0,5.0,85,0.00,,---,0.00,VWS V14.01,2013-02-11 10:20:00,
2013-02-11 04:25:00,23.6,19.8,29.61,North,360,0.0,9.0,85,0.00,,---,0.00,VWS V14.01,2013-02-11 10:25:00,
2013-02-11 04:30:00,23.5,19.7,29.61,North,360,2.0,9.0,85,0.00,,---,0.00,VWS V14.01,2013-02-11 10:30:00,
2013-02-11 04:35:00,23.4,19.6,29.62,NW,326,0.0,7.0,85,0.00,,---,0.00,VWS V14.01,2013-02-11 10:35:00,
2013-02-11 04:40:00,23.4,19.6,29.62,NNW,338,0.0,7.0,85,0.00,,---,0.00,VWS V14.01,2013-02-11 10:40:00,
2013-02-11 04:45:00,23.3,19.5,29.63,West,279,0.0,7.0,85,0.00,,---,0.00,VWS V14.01,2013-02-11 10:45:00,
2013-02-11 04:50:00,23.3,19.5,29.63,NNW,338,0.0,7.0,85,0.00,,---,0.00,VWS V14.01,2013-02-11 10:50:00,
2013-02-11 04:55:00,23.2,19.4,29.63,NNW,338,0.0,7.0,85,0.00,,---,0.00,VWS V14.01,2013-02-11 10:55:00,
2013-02-11 05:00:00,23.1,19.3,29.64,North,355,0.0,7.0,85,0.00,,---,0.00,VWS V14.01,2013-02-11 11:00:00,
2013-02-11 05:05:00,23.1,19.3,29.64,NNW,333,0.0,4.0,85,0.00,,---,0.00,VWS V14.01,2013-02-11 11:05:00,
2013-02-11 05:10:00,23.1,19.0,29.64,NW,323,1.0,4.0,84,0.00,,---,0.00,VWS V14.01,2013-02-11 11:10:00,
2013-02-11 05:15:00,22.9,18.8,29.65,NNW,346,3.0,4.0,84,0.00,,---,0.00,VWS V14.01,2013-02-11 11:15:00,
2013-02-11 05:20:00,22.8,18.7,29.65,WSW,240,0.0,4.0,84,0.00,,---,0.00,VWS V14.01,2013-02-11 11:20:00,
2013-02-11 05:25:00,22.7,18.3,29.66,NNW,330,0.0,6.0,83,0.00,,---,0.00,VWS V14.01,2013-02-11 11:25:00,
2013-02-11 05:30:00,22.6,18.2,29.66,NNE,19,2.0,6.0,83,0.00,,---,0.00,VWS V14.01,2013-02-11 11:30:00,
2013-02-11 05:35:00,22.5,18.1,29.66,NW,325,0.0,3.0,83,0.00,,---,0.00,VWS V14.01,2013-02-11 11:35:00,
2013-02-11 05:40:00,22.4,18.0,29.66,North,360,0.0,3.0,83,0.00,,---,0.00,VWS V14.01,2013-02-11 11:40:00,
2013-02-11 05:45:00,22.3,17.9,29.66,North,355,0.0,4.0,83,0.00,,---,0.00,VWS V14.01,2013-02-11 11:45:00,
2013-02-11 05:50:00,22.2,17.8,29.66,NNW,334,0.0,4.0,83,0.00,,---,0.00,VWS V14.01,2013-02-11 11:50:00,
2013-02-11 05:55:00,22.2,17.8,29.66,NW,313,0.0,5.0,83,0.00,,---,0.00,VWS V14.01,2013-02-11 11:55:00,
2013-02-11 06:00:00,22.2,17.8,29.67,NNW,338,0.0,5.0,83,0.00,,---,0.00,VWS V14.01,2013-02-11 12:00:00,
2013-02-11 06:05:00,22.1,17.7,29.67,NW,324,4.0,4.0,83,0.00,,---,0.00,VWS V14.01,2013-02-11 12:05:00,
2013-02-11 06:10:00,22.1,17.7,29.67,North,349,2.0,6.0,83,0.00,,---,0.00,VWS V14.01,2013-02-11 12:10:00,
2013-02-11 06:15:00,22.1,17.7,29.67,NNW,331,1.0,6.0,83,0.00,,---,0.00,VWS V14.01,2013-02-11 12:15:00,
2013-02-11 06:20:00,22.1,17.7,29.68,NNW,327,0.0,6.0,83,0.00,,---,0.00,VWS V14.01,2013-02-11 12:20:00,
2013-02-11 06:25:00,22.0,17.6,29.68,WNW,287,1.0,6.0,83,0.00,,---,0.00,VWS V14.01,2013-02-11 12:25:00,
2013-02-11 06:30:00,22.0,17.6,29.69,NNE,17,2.0,6.0,83,0.00,,---,0.00,VWS V14.01,2013-02-11 12:30:00,
2013-02-11 06:35:00,22.0,17.4,29.69,NNW,340,1.0,4.0,82,0.00,,---,0.00,VWS V14.01,2013-02-11 12:35:00,
2013-02-11 06:40:00,21.9,17.5,29.70,North,350,0.0,4.0,83,0.00,,---,0.00,VWS V14.01,2013-02-11 12:40:00,
2013-02-11 06:45:00,22.0,17.4,29.70,NW,325,0.0,6.0,82,0.00,,---,0.00,VWS V14.01,2013-02-11 12:45:00,
2013-02-11 06:50:00,22.0,17.4,29.70,NNW,345,0.0,6.0,82,0.00,,---,0.00,VWS V14.01,2013-02-11 12:50:00,
2013-02-11 06:55:00,22.0,17.4,29.71,NNW,334,0.0,6.0,82,0.00,,---,0.00,VWS V14.01,2013-02-11 12:55:00,
2013-02-11 07:00:00,22.0,17.4,29.71,North,5,0.0,6.0,82,0.00,,---,0.00,VWS V14.01,2013-02-11 13:00:00,
2013-02-11 07:05:00,22.0,17.4,29.71,North,360,0.0,4.0,82,0.00,,---,0.00,VWS V14.01,2013-02-11 13:05:00,
2013-02-11 07:10:00,21.9,17.3,29.72,North,350,0.0,4.0,82,0.00,,---,0.00,VWS V14.01,2013-02-11 13:10:00,
2013-02-11 07:14:00,21.9,17.3,29.72,WNW,302,0.0,4.0,82,0.00,,---,0.00,VWS V14.01,2013-02-11 13:14:00,
2013-02-11 07:19:00,22.0,17.4,29.72,NNW,340,0.0,4.0,82,0.00,,---,0.00,VWS V14.01,2013-02-11 13:19:00,
2013-02-11 07:24:00,22.0,17.4,29.73,NNW,342,0.0,4.0,82,0.00,,---,0.00,VWS V14.01,2013-02-11 13:24:00,
2013-02-11 07:29:00,22.1,17.5,29.73,North,360,0.0,6.0,82,0.00,,---,0.00,VWS V14.01,2013-02-11 13:29:00,
2013-02-11 07:30:00,22.3,17.4,29.76,North,355,1.0,6.0,81,0.00,,---,0.00,VWS V14.01,2013-02-11 13:30:00,
2013-02-11 07:34:00,22.1,17.5,29.74,NNW,338,5.0,5.0,82,0.00,,---,0.00,VWS V14.01,2013-02-11 13:34:00,
2013-02-11 07:39:00,22.1,17.5,29.73,WNW,296,0.0,5.0,82,0.00,,---,0.00,VWS V14.01,2013-02-11 13:39:00,
2013-02-11 07:44:00,22.2,17.5,29.74,WNW,296,0.0,5.0,82,0.00,,---,0.00,VWS V14.01,2013-02-11 13:44:00,
2013-02-11 07:49:00,22.2,17.5,29.75,NNW,333,0.0,5.0,82,0.00,,---,0.00,VWS V14.01,2013-02-11 13:49:00,
2013-02-11 07:54:00,22.2,17.3,29.75,NNW,341,3.0,6.0,81,0.00,,---,0.00,VWS V14.01,2013-02-11 13:54:00,
2013-02-11 07:59:00,22.2,17.3,29.75,NNW,343,2.0,6.0,81,0.00,,---,0.00,VWS V14.01,2013-02-11 13:59:00,
2013-02-11 08:00:00,22.6,17.4,29.78,NNW,337,2.0,14.0,80,0.00,,---,0.00,VWS V14.01,2013-02-11 14:00:00,
2013-02-11 08:04:00,22.2,17.3,29.75,NNW,342,0.0,2.0,81,0.00,,---,0.00,VWS V14.01,2013-02-11 14:04:00,
2013-02-11 08:09:00,22.3,17.4,29.76,NNW,334,0.0,5.0,81,0.00,,---,0.00,VWS V14.01,2013-02-11 14:09:00,
2013-02-11 08:14:00,22.3,17.4,29.76,NW,309,1.0,6.0,81,0.00,,---,0.00,VWS V14.01,2013-02-11 14:14:00,
2013-02-11 08:19:00,22.3,17.4,29.76,NW,326,0.0,6.0,81,0.00,,---,0.00,VWS V14.01,2013-02-11 14:19:00,
2013-02-11 08:24:00,22.3,17.4,29.76,NW,315,0.0,6.0,81,0.00,,---,0.00,VWS V14.01,2013-02-11 14:24:00,
2013-02-11 08:29:00,22.3,17.4,29.76,WNW,302,0.0,6.0,81,0.00,,---,0.00,VWS V14.01,2013-02-11 14:29:00,
2013-02-11 08:30:00,23.3,17.2,29.80,NNW,346,4.0,7.0,77,0.00,,---,0.00,VWS V14.01,2013-02-11 14:30:00,
2013-02-11 08:34:00,22.4,17.5,29.77,NW,321,0.0,2.0,81,0.00,,---,0.00,VWS V14.01,2013-02-11 14:34:00,
2013-02-11 08:39:00,22.5,17.3,29.77,West,281,0.0,14.0,80,0.00,,---,0.00,VWS V14.01,2013-02-11 14:39:00,
2013-02-11 08:44:00,22.6,17.7,29.77,NNW,338,3.0,14.0,81,0.00,,---,0.00,VWS V14.01,2013-02-11 14:44:00,
2013-02-11 08:49:00,22.6,17.4,29.78,North,360,2.0,14.0,80,0.00,,---,0.00,VWS V14.01,2013-02-11 14:49:00,
2013-02-11 08:54:00,22.7,17.5,29.78,NNW,338,0.0,14.0,80,0.00,,---,0.00,VWS V14.01,2013-02-11 14:54:00,
2013-02-11 08:59:00,22.7,17.5,29.78,NNW,330,3.0,14.0,80,0.00,,---,0.00,VWS V14.01,2013-02-11 14:59:00,
2013-02-11 09:00:00,24.1,17.3,29.81,NNW,347,5.0,9.0,75,0.00,,---,0.00,VWS V14.01,2013-02-11 15:00:00,
2013-02-11 09:04:00,22.7,17.5,29.78,NW,325,2.0,5.0,80,0.00,,---,0.00,VWS V14.01,2013-02-11 15:04:00,
2013-02-11 09:09:00,22.7,17.2,29.78,NW,325,0.0,7.0,79,0.00,,---,0.00,VWS V14.01,2013-02-11 15:09:00,
2013-02-11 09:14:00,22.7,17.2,29.79,SW,230,0.0,7.0,79,0.00,,---,0.00,VWS V14.01,2013-02-11 15:14:00,
2013-02-11 09:19:00,22.9,17.4,29.79,NW,322,0.0,7.0,79,0.00,,---,0.00,VWS V14.01,2013-02-11 15:19:00,
2013-02-11 09:24:00,23.0,17.2,29.79,WNW,287,2.0,7.0,78,0.00,,---,0.00,VWS V14.01,2013-02-11 15:24:00,
2013-02-11 09:29:00,23.3,17.5,29.80,NNW,333,1.0,7.0,78,0.00,,---,0.00,VWS V14.01,2013-02-11 15:29:00,
2013-02-11 09:30:00,24.6,16.9,29.83,NNW,340,0.0,10.0,72,0.00,,---,0.00,VWS V14.01,2013-02-11 15:30:00,
2013-02-11 09:34:00,23.4,17.3,29.80,NNW,330,0.0,5.0,77,0.00,,---,0.00,VWS V14.01,2013-02-11 15:34:00,
2013-02-11 09:39:00,23.6,17.5,29.81,NNW,344,2.0,6.0,77,0.00,,---,0.00,VWS V14.01,2013-02-11 15:39:00,
2013-02-11 09:44:00,23.8,17.4,29.81,WNW,287,2.0,6.0,76,0.00,,---,0.00,VWS V14.01,2013-02-11 15:44:00,
2013-02-11 09:49:00,23.9,17.1,29.81,NNW,345,1.0,6.0,75,0.00,,---,0.00,VWS V14.01,2013-02-11 15:49:00,
2013-02-11 09:54:00,23.9,17.1,29.81,NW,318,1.0,9.0,75,0.00,,---,0.00,VWS V14.01,2013-02-11 15:54:00,
2013-02-11 09:59:00,24.0,17.2,29.81,NW,310,2.0,9.0,75,0.00,,---,0.00,VWS V14.01,2013-02-11 15:59:00,
2013-02-11 10:00:00,25.7,17.9,29.84,NW,307,2.0,16.0,72,0.00,,---,0.00,VWS V14.01,2013-02-11 16:00:00,
2013-02-11 10:04:00,24.1,17.3,29.82,North,351,0.0,10.0,75,0.00,,---,0.00,VWS V14.01,2013-02-11 16:04:00,
2013-02-11 10:09:00,24.1,17.0,29.82,WNW,283,0.0,10.0,74,0.00,,---,0.00,VWS V14.01,2013-02-11 16:09:00,
2013-02-11 10:14:00,24.1,17.0,29.82,NNW,344,0.0,10.0,74,0.00,,---,0.00,VWS V14.01,2013-02-11 16:14:00,
2013-02-11 10:19:00,24.0,16.9,29.82,NNW,334,0.0,10.0,74,0.00,,---,0.00,VWS V14.01,2013-02-11 16:19:00,
2013-02-11 10:24:00,24.3,17.2,29.82,North,351,2.0,10.0,74,0.00,,---,0.00,VWS V14.01,2013-02-11 16:24:00,
2013-02-11 10:29:00,24.5,17.1,29.83,NW,326,1.0,10.0,73,0.00,,---,0.00,VWS V14.01,2013-02-11 16:29:00,
2013-02-11 10:30:00,25.4,17.3,29.85,NNW,347,0.0,10.0,71,0.00,,---,0.00,VWS V14.01,2013-02-11 16:30:00,
2013-02-11 10:34:00,24.6,16.9,29.83,NNW,334,2.0,11.0,72,0.00,,---,0.00,VWS V14.01,2013-02-11 16:34:00,
2013-02-11 10:39:00,24.5,16.8,29.83,NNW,329,0.0,11.0,72,0.00,,---,0.00,VWS V14.01,2013-02-11 16:39:00,
2013-02-11 10:44:00,24.5,16.8,29.84,WNW,296,4.0,11.0,72,0.00,,---,0.00,VWS V14.01,2013-02-11 16:44:00,
2013-02-11 10:49:00,24.6,16.5,29.84,NW,308,3.0,16.0,71,0.00,,---,0.00,VWS V14.01,2013-02-11 16:49:00,
2013-02-11 10:54:00,25.1,17.0,29.84,NNW,331,2.0,16.0,71,0.00,,---,0.00,VWS V14.01,2013-02-11 16:54:00,
2013-02-11 10:59:00,25.5,17.8,29.84,ENE,63,0.0,16.0,72,0.00,,---,0.00,VWS V14.01,2013-02-11 16:59:00,
2013-02-11 11:00:00,24.9,17.2,29.87,WSW,249,0.0,14.0,72,0.00,,---,0.00,VWS V14.01,2013-02-11 17:00:00,
2013-02-11 11:04:00,25.7,17.6,29.84,NNE,28,3.0,5.0,71,0.00,,---,0.00,VWS V14.01,2013-02-11 17:04:00,
2013-02-11 11:09:00,25.7,17.3,29.84,WNW,284,2.0,9.0,70,0.00,,---,0.00,VWS V14.01,2013-02-11 17:09:00,
2013-02-11 11:14:00,25.6,17.2,29.85,NW,313,0.0,9.0,70,0.00,,---,0.00,VWS V14.01,2013-02-11 17:14:00,
2013-02-11 11:19:00,25.4,17.0,29.85,NW,325,3.0,10.0,70,0.00,,---,0.00,VWS V14.01,2013-02-11 17:19:00,
2013-02-11 11:24:00,25.5,17.4,29.86,NNW,337,5.0,10.0,71,0.00,,---,0.00,VWS V14.01,2013-02-11 17:24:00,
2013-02-11 11:29:00,25.4,17.0,29.85,North,11,1.0,10.0,70,0.00,,---,0.00,VWS V14.01,2013-02-11 17:29:00,
2013-02-11 11:30:00,24.5,17.1,29.89,WNW,294,4.0,13.0,73,0.00,,---,0.00,VWS V14.01,2013-02-11 17:30:00,
2013-02-11 11:34:00,25.6,17.2,29.85,NW,322,0.0,3.0,70,0.00,,---,0.00,VWS V14.01,2013-02-11 17:34:00,
2013-02-11 11:39:00,25.8,17.4,29.86,NW,322,4.0,4.0,70,0.00,,---,0.00,VWS V14.01,2013-02-11 17:39:00,
2013-02-11 11:44:00,26.0,17.6,29.86,NW,313,1.0,14.0,70,0.00,,---,0.00,VWS V14.01,2013-02-11 17:44:00,
2013-02-11 11:49:00,25.8,17.4,29.87,West,278,1.0,14.0,70,0.00,,---,0.00,VWS V14.01,2013-02-11 17:49:00,
2013-02-11 11:54:00,25.3,17.2,29.87,West,269,5.0,14.0,71,0.00,,---,0.00,VWS V14.01,2013-02-11 17:54:00,
2013-02-11 11:59:00,24.9,17.2,29.87,NW,304,0.0,14.0,72,0.00,,---,0.00,VWS V14.01,2013-02-11 17:59:00,
2013-02-11 12:00:00,23.9,16.2,29.89,WSW,241,3.0,12.0,72,0.00,,---,0.00,VWS V14.01,2013-02-11 18:00:00,
2013-02-11 12:04:00,25.0,17.6,29.87,SW,224,4.0,4.0,73,0.00,,---,0.00,VWS V14.01,2013-02-11 18:04:00,
2013-02-11 12:09:00,24.8,17.1,29.88,NW,320,0.0,7.0,72,0.00,,---,0.00,VWS V14.01,2013-02-11 18:09:00,
2013-02-11 12:14:00,24.6,17.2,29.88,West,279,1.0,9.0,73,0.00,,---,0.00,VWS V14.01,2013-02-11 18:14:00,
2013-02-11 12:19:00,24.4,16.7,29.88,WSW,252,4.0,12.0,72,0.00,,---,0.00,VWS V14.01,2013-02-11 18:19:00,
2013-02-11 12:24:00,24.3,16.9,29.88,NE,37,1.0,12.0,73,0.00,,---,0.00,VWS V14.01,2013-02-11 18:24:00,
2013-02-11 12:29:00,24.4,17.0,29.88,WNW,298,1.0,12.0,73,0.00,,---,0.00,VWS V14.01,2013-02-11 18:29:00,
2013-02-11 12:30:00,24.8,16.8,29.90,NE,53,2.0,12.0,71,0.00,,---,0.00,VWS V14.01,2013-02-11 18:30:00,
2013-02-11 12:34:00,24.5,17.1,29.89,West,263,2.0,11.0,73,0.00,,---,0.00,VWS V14.01,2013-02-11 18:34:00,
2013-02-11 12:39:00,24.5,17.1,29.89,WSW,244,2.0,11.0,73,0.00,,---,0.00,VWS V14.01,2013-02-11 18:39:00,
2013-02-11 12:44:00,24.5,16.8,29.89,WSW,238,4.0,11.0,72,0.00,,---,0.00,VWS V14.01,2013-02-11 18:44:00,
2013-02-11 12:49:00,24.2,16.5,29.89,NNW,334,1.0,11.0,72,0.00,,---,0.00,VWS V14.01,2013-02-11 18:49:00,
2013-02-11 12:54:00,24.0,16.3,29.89,West,259,3.0,12.0,72,0.00,,---,0.00,VWS V14.01,2013-02-11 18:54:00,
2013-02-11 12:59:00,23.8,16.1,29.89,NNW,339,2.0,12.0,72,0.00,,---,0.00,VWS V14.01,2013-02-11 18:59:00,
2013-02-11 13:00:00,24.0,16.0,29.91,NNW,345,1.0,12.0,71,0.00,,---,0.00,VWS V14.01,2013-02-11 19:00:00,
2013-02-11 13:04:00,23.8,16.1,29.90,WNW,284,2.0,12.0,72,0.00,,---,0.00,VWS V14.01,2013-02-11 19:04:00,
2013-02-11 13:09:00,23.9,16.5,29.90,NNW,345,0.0,12.0,73,0.00,,---,0.00,VWS V14.01,2013-02-11 19:09:00,
2013-02-11 13:14:00,24.4,17.0,29.90,NW,325,2.0,12.0,73,0.00,,---,0.00,VWS V14.01,2013-02-11 19:14:00,
2013-02-11 13:19:00,24.5,16.8,29.90,West,267,2.0,12.0,72,0.00,,---,0.00,VWS V14.01,2013-02-11 19:19:00,
2013-02-11 13:24:00,24.8,17.1,29.90,WNW,300,1.0,12.0,72,0.00,,---,0.00,VWS V14.01,2013-02-11 19:24:00,
2013-02-11 13:29:00,24.8,17.1,29.90,West,266,2.0,12.0,72,0.00,,---,0.00,VWS V14.01,2013-02-11 19:29:00,
2013-02-11 13:30:00,23.3,15.0,29.92,NW,306,3.0,9.0,70,0.00,,---,0.00,VWS V14.01,2013-02-11 19:30:00,
2013-02-11 13:34:00,24.6,16.5,29.90,WNW,301,0.0,4.0,71,0.00,,---,0.00,VWS V14.01,2013-02-11 19:34:00,
2013-02-11 13:39:00,24.4,16.4,29.90,NNW,342,2.0,11.0,71,0.00,,---,0.00,VWS V14.01,2013-02-11 19:39:00,
2013-02-11 13:44:00,24.2,16.2,29.90,NNW,331,0.0,12.0,71,0.00,,---,0.00,VWS V14.01,2013-02-11 19:44:00,
2013-02-11 13:49:00,24.1,16.1,29.91,NNW,333,4.0,12.0,71,0.00,,---,0.00,VWS V14.01,2013-02-11 19:49:00,
2013-02-11 13:54:00,24.0,16.0,29.91,NNW,340,0.0,12.0,71,0.00,,---,0.00,VWS V14.01,2013-02-11 19:54:00,
2013-02-11 13:59:00,24.0,16.0,29.91,NW,326,0.0,12.0,71,0.00,,---,0.00,VWS V14.01,2013-02-11 19:59:00,
2013-02-11 14:00:00,22.5,14.5,29.93,North,355,0.0,10.0,71,0.00,,---,0.00,VWS V14.01,2013-02-11 20:00:00,
2013-02-11 14:04:00,23.9,15.9,29.91,NNW,333,2.0,4.0,71,0.00,,---,0.00,VWS V14.01,2013-02-11 20:04:00,
2013-02-11 14:09:00,23.5,15.5,29.91,NW,326,1.0,9.0,71,0.00,,---,0.00,VWS V14.01,2013-02-11 20:09:00,
2013-02-11 14:14:00,23.4,15.4,29.91,NW,316,0.0,9.0,71,0.00,,---,0.00,VWS V14.01,2013-02-11 20:14:00,
2013-02-11 14:19:00,23.4,15.4,29.92,WNW,284,3.0,9.0,71,0.00,,---,0.00,VWS V14.01,2013-02-11 20:19:00,
2013-02-11 14:24:00,23.4,15.4,29.92,WNW,296,0.0,9.0,71,0.00,,---,0.00,VWS V14.01,2013-02-11 20:24:00,
2013-02-11 14:29:00,23.4,15.1,29.92,NNW,344,4.0,9.0,70,0.00,,---,0.00,VWS V14.01,2013-02-11 20:29:00,
2013-02-11 14:30:00,21.8,13.9,29.94,WNW,295,1.0,13.0,71,0.00,,---,0.00,VWS V14.01,2013-02-11 20:30:00,
2013-02-11 14:34:00,23.0,14.7,29.92,NNW,330,0.0,4.0,70,0.00,,---,0.00,VWS V14.01,2013-02-11 20:34:00,
2013-02-11 14:39:00,22.9,14.9,29.92,West,259,10.0,10.0,71,0.00,,---,0.00,VWS V14.01,2013-02-11 20:39:00,
2013-02-11 14:44:00,22.9,14.6,29.92,WNW,288,0.0,10.0,70,0.00,,---,0.00,VWS V14.01,2013-02-11 20:44:00,
2013-02-11 14:49:00,22.7,14.4,29.93,NNW,340,1.0,10.0,70,0.00,,---,0.00,VWS V14.01,2013-02-11 20:49:00,
2013-02-11 14:54:00,22.5,14.5,29.93,NE,39,3.0,10.0,71,0.00,,---,0.00,VWS V14.01,2013-02-11 20:54:00,
2013-02-11 14:59:00,22.5,14.5,29.93,NNW,337,1.0,10.0,71,0.00,,---,0.00,VWS V14.01,2013-02-11 20:59:00,
2013-02-11 15:00:00,21.7,14.1,29.96,WSW,254,0.0,10.0,72,0.00,,---,0.00,VWS V14.01,2013-02-11 21:00:00,
2013-02-11 15:04:00,22.5,14.5,29.93,NW,304,0.0,9.0,71,0.00,,---,0.00,VWS V14.01,2013-02-11 21:04:00,
2013-02-11 15:09:00,22.3,14.3,29.93,NNE,24,0.0,10.0,71,0.00,,---,0.00,VWS V14.01,2013-02-11 21:09:00,
2013-02-11 15:14:00,22.2,14.2,29.94,NW,323,0.0,10.0,71,0.00,,---,0.00,VWS V14.01,2013-02-11 21:14:00,
2013-02-11 15:19:00,22.1,14.1,29.94,West,263,0.0,10.0,71,0.00,,---,0.00,VWS V14.01,2013-02-11 21:19:00,
2013-02-11 15:24:00,22.0,14.4,29.94,NW,323,3.0,13.0,72,0.00,,---,0.00,VWS V14.01,2013-02-11 21:24:00,
2013-02-11 15:29:00,21.9,14.0,29.94,WNW,296,1.0,13.0,71,0.00,,---,0.00,VWS V14.01,2013-02-11 21:29:00,
2013-02-11 15:30:00,20.9,13.6,29.97,WNW,300,5.0,10.0,73,0.00,,---,0.00,VWS V14.01,2013-02-11 21:30:00,
2013-02-11 15:34:00,21.7,13.8,29.94,NW,306,0.0,4.0,71,0.00,,---,0.00,VWS V14.01,2013-02-11 21:34:00,
2013-02-11 15:39:00,21.6,14.0,29.95,NNW,336,0.0,5.0,72,0.00,,---,0.00,VWS V14.01,2013-02-11 21:39:00,
2013-02-11 15:44:00,21.5,13.9,29.95,NW,317,0.0,10.0,72,0.00,,---,0.00,VWS V14.01,2013-02-11 21:44:00,
2013-02-11 15:49:00,21.6,14.0,29.95,West,261,0.0,10.0,72,0.00,,---,0.00,VWS V14.01,2013-02-11 21:49:00,
2013-02-11 15:54:00,21.6,14.0,29.95,NW,307,0.0,10.0,72,0.00,,---,0.00,VWS V14.01,2013-02-11 21:54:00,
2013-02-11 15:59:00,21.7,14.1,29.96,North,360,2.0,10.0,72,0.00,,---,0.00,VWS V14.01,2013-02-11 21:59:00,
2013-02-11 16:00:00,19.8,12.6,29.98,WNW,289,0.0,7.0,73,0.00,,---,0.00,VWS V14.01,2013-02-11 22:00:00,
2013-02-11 16:04:00,21.5,13.6,29.96,WNW,292,0.0,6.0,71,0.00,,---,0.00,VWS V14.01,2013-02-11 22:04:00,
2013-02-11 16:09:00,21.3,13.7,29.96,NW,324,0.0,6.0,72,0.00,,---,0.00,VWS V14.01,2013-02-11 22:09:00,
2013-02-11 16:14:00,21.2,13.9,29.96,WNW,296,0.0,6.0,73,0.00,,---,0.00,VWS V14.01,2013-02-11 22:14:00,
2013-02-11 16:19:00,21.1,13.5,29.97,North,349,0.0,6.0,72,0.00,,---,0.00,VWS V14.01,2013-02-11 22:19:00,
2013-02-11 16:24:00,21.0,13.7,29.97,NNW,329,0.0,6.0,73,0.00,,---,0.00,VWS V14.01,2013-02-11 22:24:00,
2013-02-11 16:29:00,21.0,13.7,29.97,North,355,0.0,6.0,73,0.00,,---,0.00,VWS V14.01,2013-02-11 22:29:00,
2013-02-11 16:30:00,18.6,12.0,29.98,NW,304,0.0,6.0,75,0.00,,---,0.00,VWS V14.01,2013-02-11 22:30:00,
2013-02-11 16:34:00,20.7,13.1,29.97,NNW,329,0.0,5.0,72,0.00,,---,0.00,VWS V14.01,2013-02-11 22:34:00,
2013-02-11 16:39:00,20.5,12.9,29.97,WNW,288,3.0,5.0,72,0.00,,---,0.00,VWS V14.01,2013-02-11 22:39:00,
2013-02-11 16:44:00,20.4,13.1,29.97,West,263,0.0,5.0,73,0.00,,---,0.00,VWS V14.01,2013-02-11 22:44:00,
2013-02-11 16:49:00,20.2,12.9,29.97,West,271,0.0,7.0,73,0.00,,---,0.00,VWS V14.01,2013-02-11 22:49:00,
2013-02-11 16:54:00,20.0,12.8,29.98,West,281,0.0,7.0,73,0.00,,---,0.00,VWS V14.01,2013-02-11 22:54:00,
2013-02-11 16:59:00,19.8,12.6,29.98,WSW,256,1.0,7.0,73,0.00,,---,0.00,VWS V14.01,2013-02-11 22:59:00,
2013-02-11 17:00:00,18.1,11.8,30.00,West,259,0.0,6.0,76,0.00,,---,0.00,VWS V14.01,2013-02-11 23:00:00,
2013-02-11 17:04:00,19.7,12.5,29.98,NW,304,0.0,4.0,73,0.00,,---,0.00,VWS V14.01,2013-02-11 23:04:00,
2013-02-11 17:09:00,19.6,12.7,29.98,SW,217,4.0,4.0,74,0.00,,---,0.00,VWS V14.01,2013-02-11 23:09:00,
2013-02-11 17:14:00,19.4,12.5,29.98,NW,315,0.0,4.0,74,0.00,,---,0.00,VWS V14.01,2013-02-11 23:14:00,
2013-02-11 17:19:00,19.1,12.2,29.98,West,260,0.0,4.0,74,0.00,,---,0.00,VWS V14.01,2013-02-11 23:19:00,
2013-02-11 17:24:00,18.9,12.0,29.98,WNW,286,0.0,4.0,74,0.00,,---,0.00,VWS V14.01,2013-02-11 23:24:00,
2013-02-11 17:29:00,18.6,11.7,29.98,WNW,286,0.0,6.0,74,0.00,,---,0.00,VWS V14.01,2013-02-11 23:29:00,
2013-02-11 17:30:00,17.1,10.6,30.01,WNW,295,0.0,7.0,75,0.00,,---,0.00,VWS V14.01,2013-02-11 23:30:00,
2013-02-11 17:34:00,18.5,11.9,29.98,NW,304,1.0,2.0,75,0.00,,---,0.00,VWS V14.01,2013-02-11 23:34:00,
2013-02-11 17:39:00,18.4,11.8,29.99,West,265,2.0,4.0,75,0.00,,---,0.00,VWS V14.01,2013-02-11 23:39:00,
2013-02-11 17:44:00,18.4,11.8,29.99,West,274,1.0,4.0,75,0.00,,---,0.00,VWS V14.01,2013-02-11 23:44:00,
2013-02-11 17:49:00,18.3,12.0,29.99,WNW,286,0.0,4.0,76,0.00,,---,0.00,VWS V14.01,2013-02-11 23:49:00,
2013-02-11 17:54:00,18.2,11.9,29.99,West,265,2.0,6.0,76,0.00,,---,0.00,VWS V14.01,2013-02-11 23:54:00,
2013-02-11 17:59:00,18.2,11.9,30.00,WNW,296,0.0,6.0,76,0.00,,---,0.00,VWS V14.01,2013-02-11 23:59:00,
2013-02-11 18:00:00,14.8,8.9,30.01,WNW,296,0.0,0.0,77,0.00,,---,0.00,VWS V14.01,2013-02-12 00:00:00,
2013-02-11 18:04:00,18.1,11.8,30.00,West,260,0.0,2.0,76,0.00,,---,0.00,VWS V14.01,2013-02-12 00:04:00,
2013-02-11 18:09:00,18.0,11.7,30.00,West,264,0.0,5.0,76,0.00,,---,0.00,VWS V14.01,2013-02-12 00:09:00,
2013-02-11 18:14:00,17.9,11.6,30.01,West,265,0.0,7.0,76,0.00,,---,0.00,VWS V14.01,2013-02-12 00:14:00,
2013-02-11 18:19:00,17.8,11.2,30.01,NNW,330,0.0,7.0,75,0.00,,---,0.00,VWS V14.01,2013-02-12 00:19:00,
2013-02-11 18:24:00,17.6,11.0,30.01,North,360,0.0,7.0,75,0.00,,---,0.00,VWS V14.01,2013-02-12 00:24:00,
2013-02-11 18:29:00,17.2,10.6,30.01,WNW,296,0.0,7.0,75,0.00,,---,0.00,VWS V14.01,2013-02-12 00:29:00,
2013-02-11 18:30:00,12.1,6.8,30.02,WNW,296,0.0,0.0,79,0.00,,---,0.00,VWS V14.01,2013-02-12 00:30:00,
2013-02-11 18:34:00,16.8,10.3,30.02,WNW,295,0.0,0.0,75,0.00,,---,0.00,VWS V14.01,2013-02-12 00:34:00,
2013-02-11 18:39:00,16.5,10.3,30.02,WNW,295,0.0,0.0,76,0.00,,---,0.00,VWS V14.01,2013-02-12 00:39:00,
2013-02-11 18:44:00,16.1,9.9,30.01,WNW,296,0.0,0.0,76,0.00,,---,0.00,VWS V14.01,2013-02-12 00:44:00,
2013-02-11 18:49:00,15.7,9.5,30.01,WNW,296,0.0,0.0,76,0.00,,---,0.00,VWS V14.01,2013-02-12 00:49:00,
2013-02-11 18:54:00,15.3,9.4,30.01,WNW,295,0.0,0.0,77,0.00,,---,0.00,VWS V14.01,2013-02-12 00:54:00,
2013-02-11 18:59:00,14.9,9.0,30.01,WNW,296,0.0,0.0,77,0.00,,---,0.00,VWS V14.01,2013-02-12 00:59:00,
2013-02-11 19:00:00,9.2,4.0,30.02,WNW,296,0.0,0.0,79,0.00,,---,0.00,VWS V14.01,2013-02-12 01:00:00,
2013-02-11 19:04:00,14.5,8.6,30.01,WNW,296,0.0,0.0,77,0.00,,---,0.00,VWS V14.01,2013-02-12 01:04:00,
2013-02-11 19:09:00,14.1,8.5,30.02,WNW,295,0.0,0.0,78,0.00,,---,0.00,VWS V14.01,2013-02-12 01:09:00,
2013-02-11 19:14:00,13.7,8.4,30.02,WNW,295,0.0,0.0,79,0.00,,---,0.00,VWS V14.01,2013-02-12 01:14:00,
2013-02-11 19:19:00,13.3,8.0,30.02,WNW,295,0.0,0.0,79,0.00,,---,0.00,VWS V14.01,2013-02-12 01:19:00,
2013-02-11 19:24:00,12.8,7.2,30.02,WNW,296,0.0,0.0,78,0.00,,---,0.00,VWS V14.01,2013-02-12 01:24:00,
2013-02-11 19:29:00,12.3,7.0,30.02,WNW,296,0.0,0.0,79,0.00,,---,0.00,VWS V14.01,2013-02-12 01:29:00,
2013-02-11 19:30:00,6.8,2.0,30.03,WNW,296,0.0,0.0,80,0.00,,---,0.00,VWS V14.01,2013-02-12 01:30:00,
2013-02-11 19:34:00,11.9,6.9,30.02,WNW,296,0.0,0.0,80,0.00,,---,0.00,VWS V14.01,2013-02-12 01:34:00,
2013-02-11 19:39:00,11.5,6.3,30.02,WNW,296,0.0,0.0,79,0.00,,---,0.00,VWS V14.01,2013-02-12 01:39:00,
2013-02-11 19:44:00,11.0,5.8,30.02,WNW,296,0.0,0.0,79,0.00,,---,0.00,VWS V14.01,2013-02-12 01:44:00,
2013-02-11 19:49:00,10.5,5.3,30.02,WNW,296,0.0,0.0,79,0.00,,---,0.00,VWS V14.01,2013-02-12 01:49:00,
2013-02-11 19:54:00,9.9,4.7,30.02,WNW,296,0.0,0.0,79,0.00,,---,0.00,VWS V14.01,2013-02-12 01:54:00,
2013-02-11 19:59:00,9.4,4.2,30.02,WNW,295,0.0,0.0,79,0.00,,---,0.00,VWS V14.01,2013-02-12 01:59:00,
2013-02-11 20:00:00,6.1,1.5,30.04,WNW,295,0.0,0.0,81,0.00,,---,0.00,VWS V14.01,2013-02-12 02:00:00,
2013-02-11 20:04:00,8.8,3.6,30.03,WNW,295,0.0,0.0,79,0.00,,---,0.00,VWS V14.01,2013-02-12 02:04:00,
2013-02-11 20:09:00,8.3,3.4,30.02,WNW,295,0.0,0.0,80,0.00,,---,0.00,VWS V14.01,2013-02-12 02:09:00,
2013-02-11 20:14:00,8.0,3.1,30.02,WNW,295,0.0,0.0,80,0.00,,---,0.00,VWS V14.01,2013-02-12 02:14:00,
2013-02-11 20:19:00,7.6,2.7,30.03,WNW,295,0.0,0.0,80,0.00,,---,0.00,VWS V14.01,2013-02-12 02:19:00,
2013-02-11 20:24:00,7.3,2.4,30.03,WNW,295,0.0,0.0,80,0.00,,---,0.00,VWS V14.01,2013-02-12 02:24:00,
2013-02-11 20:29:00,6.9,2.0,30.03,WNW,296,0.0,0.0,80,0.00,,---,0.00,VWS V14.01,2013-02-12 02:29:00,
2013-02-11 20:30:00,5.4,1.1,30.05,WNW,296,0.0,0.0,82,0.00,,---,0.00,VWS V14.01,2013-02-12 02:30:00,
2013-02-11 20:34:00,6.6,1.8,30.03,WNW,296,0.0,0.0,80,0.00,,---,0.00,VWS V14.01,2013-02-12 02:34:00,
2013-02-11 20:39:00,6.4,1.8,30.03,WNW,295,0.0,0.0,81,0.00,,---,0.00,VWS V14.01,2013-02-12 02:39:00,
2013-02-11 20:44:00,6.4,1.8,30.03,WNW,295,0.0,0.0,81,0.00,,---,0.00,VWS V14.01,2013-02-12 02:44:00,
2013-02-11 20:49:00,6.3,1.7,30.03,WNW,296,0.0,0.0,81,0.00,,---,0.00,VWS V14.01,2013-02-12 02:49:00,
2013-02-11 20:54:00,6.3,2.0,30.04,WNW,296,0.0,0.0,82,0.00,,---,0.00,VWS V14.01,2013-02-12 02:54:00,
2013-02-11 20:59:00,6.2,1.9,30.04,WNW,296,0.0,0.0,82,0.00,,---,0.00,VWS V14.01,2013-02-12 02:59:00,
2013-02-11 21:00:00,5.4,1.1,30.04,WNW,296,0.0,0.0,82,0.00,,---,0.00,VWS V14.01,2013-02-12 03:00:00,
2013-02-11 21:04:00,6.0,1.4,30.04,WNW,295,0.0,0.0,81,0.00,,---,0.00,VWS V14.01,2013-02-12 03:04:00,
2013-02-11 21:09:00,5.8,1.2,30.04,WNW,296,0.0,0.0,81,0.00,,---,0.00,VWS V14.01,2013-02-12 03:09:00,
2013-02-11 21:14:00,5.6,1.0,30.04,WNW,295,0.0,0.0,81,0.00,,---,0.00,VWS V14.01,2013-02-12 03:14:00,
2013-02-11 21:19:00,5.4,0.9,30.05,WNW,296,0.0,0.0,81,0.00,,---,0.00,VWS V14.01,2013-02-12 03:19:00,
2013-02-11 21:24:00,5.3,0.8,30.05,WNW,295,0.0,0.0,81,0.00,,---,0.00,VWS V14.01,2013-02-12 03:24:00,
2013-02-11 21:29:00,5.4,1.1,30.05,WNW,296,0.0,0.0,82,0.00,,---,0.00,VWS V14.01,2013-02-12 03:29:00,
2013-02-11 21:30:00,4.2,-0.3,30.04,WNW,295,0.0,0.0,81,0.00,,---,0.00,VWS V14.01,2013-02-12 03:30:00,
2013-02-11 21:34:00,5.4,1.1,30.05,WNW,296,0.0,0.0,82,0.00,,---,0.00,VWS V14.01,2013-02-12 03:34:00,
2013-02-11 21:39:00,5.4,1.1,30.05,WNW,296,0.0,0.0,82,0.00,,---,0.00,VWS V14.01,2013-02-12 03:39:00,
2013-02-11 21:44:00,5.3,1.0,30.05,WNW,296,0.0,0.0,82,0.00,,---,0.00,VWS V14.01,2013-02-12 03:44:00,
2013-02-11 21:49:00,5.2,0.9,30.05,WNW,295,0.0,0.0,82,0.00,,---,0.00,VWS V14.01,2013-02-12 03:49:00,
2013-02-11 21:54:00,5.3,1.0,30.05,WNW,296,0.0,0.0,82,0.00,,---,0.00,VWS V14.01,2013-02-12 03:54:00,
2013-02-11 21:59:00,5.4,1.1,30.04,WNW,296,0.0,0.0,82,0.00,,---,0.00,VWS V14.01,2013-02-12 03:59:00,
2013-02-11 22:00:00,2.9,-1.3,30.05,WNW,296,0.0,0.0,82,0.00,,---,0.00,VWS V14.01,2013-02-12 04:00:00,
2013-02-11 22:04:00,5.3,1.0,30.04,WNW,296,0.0,0.0,82,0.00,,---,0.00,VWS V14.01,2013-02-12 04:04:00,
2013-02-11 22:09:00,5.1,0.8,30.05,WNW,296,0.0,0.0,82,0.00,,---,0.00,VWS V14.01,2013-02-12 04:09:00,
2013-02-11 22:14:00,4.9,0.6,30.05,WNW,296,0.0,0.0,82,0.00,,---,0.00,VWS V14.01,2013-02-12 04:14:00,
2013-02-11 22:19:00,4.7,0.4,30.05,WNW,296,0.0,0.0,82,0.00,,---,0.00,VWS V14.01,2013-02-12 04:19:00,
2013-02-11 22:24:00,4.6,0.3,30.04,WNW,295,0.0,0.0,82,0.00,,---,0.00,VWS V14.01,2013-02-12 04:24:00,
2013-02-11 22:29:00,4.3,0.0,30.04,WNW,295,0.0,0.0,82,0.00,,---,0.00,VWS V14.01,2013-02-12 04:29:00,
2013-02-11 22:30:00,4.0,0.0,30.04,WNW,295,0.0,0.0,83,0.00,,---,0.00,VWS V14.01,2013-02-12 04:30:00,
2013-02-11 22:34:00,4.1,-0.4,30.04,WNW,296,0.0,0.0,81,0.00,,---,0.00,VWS V14.01,2013-02-12 04:34:00,
2013-02-11 22:39:00,3.7,-0.8,30.04,WNW,296,0.0,0.0,81,0.00,,---,0.00,VWS V14.01,2013-02-12 04:39:00,
2013-02-11 22:44:00,3.3,-1.2,30.04,WNW,296,0.0,0.0,81,0.00,,---,0.00,VWS V14.01,2013-02-12 04:44:00,
2013-02-11 22:49:00,3.1,-1.4,30.05,WNW,296,0.0,0.0,81,0.00,,---,0.00,VWS V14.01,2013-02-12 04:49:00,
2013-02-11 22:54:00,2.9,-1.6,30.05,WNW,296,0.0,0.0,81,0.00,,---,0.00,VWS V14.01,2013-02-12 04:54:00,
2013-02-11 22:59:00,2.9,-1.6,30.05,WNW,295,0.0,0.0,81,0.00,,---,0.00,VWS V14.01,2013-02-12 04:59:00,
2013-02-11 23:00:00,2.8,-1.4,30.05,WNW,296,0.0,0.0,82,0.00,,---,0.00,VWS V14.01,2013-02-12 05:00:00,
2013-02-11 23:05:00,2.9,-1.3,30.05,WNW,296,0.0,0.0,82,0.00,,---,0.00,VWS V14.01,2013-02-12 05:05:00,
2013-02-11 23:10:00,2.9,-1.3,30.05,WNW,296,0.0,0.0,82,0.00,,---,0.00,VWS V14.01,2013-02-12 05:10:00,
2013-02-11 23:15:00,3.0,-1.5,30.04,WNW,295,0.0,0.0,81,0.00,,---,0.00,VWS V14.01,2013-02-12 05:15:00,
2013-02-11 23:20:00,3.3,-0.9,30.04,WNW,296,0.0,0.0,82,0.00,,---,0.00,VWS V14.01,2013-02-12 05:20:00,
2013-02-11 23:25:00,3.5,-0.8,30.05,WNW,296,0.0,0.0,82,0.00,,---,0.00,VWS V14.01,2013-02-12 05:25:00,
2013-02-11 23:30:00,3.9,-0.4,30.04,WNW,295,0.0,0.0,82,0.00,,---,0.00,VWS V14.01,2013-02-12 05:30:00,
2013-02-11 23:35:00,4.5,0.5,30.04,WNW,296,0.0,0.0,83,0.00,,---,0.00,VWS V14.01,2013-02-12 05:35:00,
2013-02-11 23:40:00,4.9,0.9,30.04,WNW,296,0.0,0.0,83,0.00,,---,0.00,VWS V14.01,2013-02-12 05:40:00,
2013-02-11 23:45:00,5.2,1.2,30.04,WNW,296,0.0,0.0,83,0.00,,---,0.00,VWS V14.01,2013-02-12 05:45:00,
2013-02-11 23:50:00,5.4,1.4,30.05,WNW,296,0.0,0.0,83,0.00,,---,0.00,VWS V14.01,2013-02-12 05:50:00,
2013-02-11 23:55:00,5.8,1.8,30.05,WNW,295,0.0,0.0,83,0.00,,---,0.00,VWS V14.01,2013-02-12 05:55:00,